Location: Lancaster
(34.6980°N, 118.1360°W)
Time: 16:45:28
(UTC-07:00)

Hubble Space Telescope - Visible Passes

Search period start: 30 September 2022 00:00
Search period end: 10 October 2022 00:00
Orbit: 531 x 535 km, 28.5° (Epoch: 30 September)

Date Brightness Start Highest point End Pass type
(mag) Time Alt. Az. Time Alt. Az. Time Alt. Az.
30 Sep 2.1 20:04:18 10° WSW 20:07:49 28° S 20:08:43 25° SSE visible
01 Oct 2.3 19:52:07 10° WSW 19:55:30 25° SSW 19:57:10 19° SSE visible
02 Oct 2.6 19:39:57 10° WSW 19:43:12 22° SSW 19:45:40 14° SSE visible
03 Oct 2.8 19:27:51 10° WSW 19:30:52 20° SSW 19:33:52 10° SSE visible
04 Oct 3.1 19:15:48 10° WSW 19:18:31 17° SSW 19:21:13 10° SSE visible
05 Oct 3.3 19:03:52 10° SW 19:06:09 15° SSW 19:08:27 10° SSE visible
06 Oct 3.4 18:52:08 10° SW 18:53:47 12° SSW 18:55:25 10° S visible
